Time,TemperatureF,DewpointF,PressureIn,WindDirection,WindDirectionDegrees,WindSpeedMPH,WindSpeedGustMPH,Humidity,HourlyPrecipIn,Conditions,Clouds,dailyrainin,SoftwareType,DateUTC
2013-04-29 00:00:00,54.8,53.7,30.05,SSW,212,1.0,18.0,96,0.00,,---,0.61,VWS V13.01,2013-04-29 04:00:00,
2013-04-29 00:01:00,54.8,53.7,30.05,SW,214,0.0,18.0,96,0.00,,---,0.62,VWS V13.01,2013-04-29 04:01:00,
2013-04-29 00:06:00,54.8,54.0,30.05,North,359,0.0,18.0,97,0.00,,---,0.62,VWS V13.01,2013-04-29 04:06:00,
2013-04-29 00:11:00,54.9,53.8,30.05,WNW,287,0.0,18.0,96,0.00,,---,0.00,VWS V13.01,2013-04-29 04:11:00,
2013-04-29 00:16:00,54.9,53.8,30.05,SSW,204,0.0,18.0,96,0.00,,---,0.00,VWS V13.01,2013-04-29 04:16:00,
2013-04-29 00:21:00,54.9,53.8,30.05,SSW,201,0.0,18.0,96,0.00,,---,0.00,VWS V13.01,2013-04-29 04:21:00,
2013-04-29 00:26:00,55.0,54.2,30.05,ESE,107,0.0,18.0,97,0.00,,---,0.00,VWS V13.01,2013-04-29 04:26:00,
2013-04-29 00:31:00,55.0,53.9,30.05,ESE,106,0.0,18.0,96,0.00,,---,0.00,VWS V13.01,2013-04-29 04:31:00,
2013-04-29 00:36:00,55.1,54.3,30.05,SE,124,0.0,18.0,97,0.00,,---,0.01,VWS V13.01,2013-04-29 04:36:00,
2013-04-29 00:41:00,55.1,54.3,30.05,WNW,303,0.0,18.0,97,0.00,,---,0.01,VWS V13.01,2013-04-29 04:41:00,
2013-04-29 00:46:00,55.1,54.3,30.05,SW,215,0.0,18.0,97,0.00,,---,0.01,VWS V13.01,2013-04-29 04:46:00,
2013-04-29 00:51:00,55.1,54.3,30.05,ESE,118,0.0,18.0,97,0.00,,---,0.02,VWS V13.01,2013-04-29 04:51:00,
2013-04-29 00:56:00,55.2,54.4,30.05,ESE,118,0.0,18.0,97,0.00,,---,0.02,VWS V13.01,2013-04-29 04:56:00,
2013-04-29 01:01:00,55.3,54.5,30.05,SW,232,0.0,18.0,97,0.00,,---,0.03,VWS V13.01,2013-04-29 05:01:00,
2013-04-29 01:06:00,55.3,54.5,30.05,SW,233,0.0,18.0,97,0.00,,---,0.03,VWS V13.01,2013-04-29 05:06:00,
2013-04-29 01:11:00,55.3,54.5,30.03,NNW,346,0.0,18.0,97,0.00,,---,0.03,VWS V13.01,2013-04-29 05:11:00,
2013-04-29 01:16:00,55.3,54.5,30.03,WSW,248,0.0,18.0,97,0.00,,---,0.04,VWS V13.01,2013-04-29 05:16:00,
2013-04-29 01:21:00,55.4,54.6,30.03,WSW,245,0.0,18.0,97,0.00,,---,0.04,VWS V13.01,2013-04-29 05:21:00,
2013-04-29 01:26:00,55.5,54.7,30.03,SSW,210,0.0,18.0,97,0.00,,---,0.04,VWS V13.01,2013-04-29 05:26:00,
2013-04-29 01:31:00,55.6,54.8,30.03,SSW,210,0.0,18.0,97,0.00,,---,0.05,VWS V13.01,2013-04-29 05:31:00,
2013-04-29 01:36:00,55.6,54.8,30.03,WSW,248,0.0,18.0,97,0.00,,---,0.05,VWS V13.01,2013-04-29 05:36:00,
2013-04-29 01:41:00,55.7,54.9,30.03,NNE,18,0.0,18.0,97,0.00,,---,0.05,VWS V13.01,2013-04-29 05:41:00,
2013-04-29 01:46:00,55.7,54.9,30.03,SE,144,0.0,18.0,97,0.00,,---,0.05,VWS V13.01,2013-04-29 05:46:00,
2013-04-29 01:51:00,55.8,55.0,30.03,SE,132,0.0,18.0,97,0.00,,---,0.06,VWS V13.01,2013-04-29 05:51:00,
2013-04-29 01:56:00,55.8,55.0,30.03,East,93,0.0,18.0,97,0.00,,---,0.06,VWS V13.01,2013-04-29 05:56:00,
2013-04-29 02:01:00,55.8,55.0,30.03,SSW,207,0.0,18.0,97,0.00,,---,0.07,VWS V13.01,2013-04-29 06:01:00,
2013-04-29 02:06:00,55.8,55.0,30.03,SSW,201,0.0,18.0,97,0.00,,---,0.08,VWS V13.01,2013-04-29 06:06:00,
2013-04-29 02:11:00,55.8,55.0,30.02,West,270,0.0,18.0,97,0.00,,---,0.09,VWS V13.01,2013-04-29 06:11:00,
2013-04-29 02:16:00,55.8,55.0,30.02,West,271,0.0,18.0,97,0.00,,---,0.10,VWS V13.01,2013-04-29 06:16:00,
2013-04-29 02:21:00,55.8,55.0,30.02,West,270,0.0,18.0,97,0.00,,---,0.11,VWS V13.01,2013-04-29 06:21:00,
2013-04-29 02:26:00,55.8,55.0,30.01,South,174,0.0,18.0,97,0.00,,---,0.11,VWS V13.01,2013-04-29 06:26:00,
2013-04-29 02:31:00,55.7,54.9,30.01,WSW,238,0.0,18.0,97,0.00,,---,0.12,VWS V13.01,2013-04-29 06:31:00,
2013-04-29 02:36:00,55.7,54.9,30.01,WSW,240,0.0,18.0,97,0.00,,---,0.12,VWS V13.01,2013-04-29 06:36:00,
2013-04-29 02:41:00,55.7,54.9,30.01,WSW,239,0.0,18.0,97,0.00,,---,0.13,VWS V13.01,2013-04-29 06:41:00,
2013-04-29 02:46:00,55.7,54.9,30.01,WSW,239,0.0,18.0,97,0.00,,---,0.13,VWS V13.01,2013-04-29 06:46:00,
2013-04-29 02:51:00,55.7,54.9,30.01,WSW,240,0.0,18.0,97,0.00,,---,0.14,VWS V13.01,2013-04-29 06:51:00,
2013-04-29 02:56:00,55.7,54.9,30.01,WSW,240,0.0,18.0,97,0.00,,---,0.14,VWS V13.01,2013-04-29 06:56:00,
2013-04-29 03:01:00,55.7,54.9,30.01,WSW,238,0.0,18.0,97,0.00,,---,0.15,VWS V13.01,2013-04-29 07:01:00,
2013-04-29 03:06:00,55.7,54.9,30.01,WSW,238,0.0,18.0,97,0.00,,---,0.16,VWS V13.01,2013-04-29 07:06:00,
2013-04-29 03:11:00,55.7,54.9,30.00,WSW,238,0.0,18.0,97,0.00,,---,0.17,VWS V13.01,2013-04-29 07:11:00,
2013-04-29 03:16:00,55.7,54.9,30.00,WSW,238,0.0,18.0,97,0.00,,---,0.18,VWS V13.01,2013-04-29 07:16:00,
2013-04-29 03:21:00,55.7,54.9,30.00,WSW,239,0.0,18.0,97,0.00,,---,0.18,VWS V13.01,2013-04-29 07:21:00,
2013-04-29 03:26:00,55.7,54.9,30.00,WSW,238,0.0,18.0,97,0.00,,---,0.19,VWS V13.01,2013-04-29 07:26:00,
2013-04-29 03:31:00,55.7,54.9,30.00,WSW,238,0.0,18.0,97,0.00,,---,0.20,VWS V13.01,2013-04-29 07:31:00,
2013-04-29 03:36:00,55.7,54.9,30.00,WSW,238,0.0,18.0,97,0.00,,---,0.21,VWS V13.01,2013-04-29 07:36:00,
2013-04-29 03:41:00,55.7,54.9,30.00,WSW,238,0.0,18.0,97,0.00,,---,0.21,VWS V13.01,2013-04-29 07:41:00,
2013-04-29 03:46:00,55.7,54.9,30.00,WSW,238,0.0,18.0,97,0.00,,---,0.22,VWS V13.01,2013-04-29 07:46:00,
2013-04-29 03:51:00,55.7,54.9,30.00,WSW,237,0.0,18.0,97,0.00,,---,0.22,VWS V13.01,2013-04-29 07:51:00,
2013-04-29 03:56:00,55.7,54.9,30.00,West,281,0.0,18.0,97,0.00,,---,0.23,VWS V13.01,2013-04-29 07:56:00,
2013-04-29 04:01:00,55.7,54.9,30.00,West,281,0.0,18.0,97,0.00,,---,0.24,VWS V13.01,2013-04-29 08:01:00,
2013-04-29 04:06:00,55.7,54.9,30.00,West,281,0.0,18.0,97,0.00,,---,0.24,VWS V13.01,2013-04-29 08:06:00,
2013-04-29 04:11:00,55.7,54.9,29.99,West,281,0.0,18.0,97,0.00,,---,0.25,VWS V13.01,2013-04-29 08:11:00,
2013-04-29 04:16:00,55.7,54.9,29.99,West,281,0.0,18.0,97,0.00,,---,0.25,VWS V13.01,2013-04-29 08:16:00,
2013-04-29 04:21:00,55.8,55.0,29.99,West,281,0.0,18.0,97,0.00,,---,0.25,VWS V13.01,2013-04-29 08:21:00,
2013-04-29 04:26:00,55.8,55.0,29.99,West,281,0.0,18.0,97,0.00,,---,0.25,VWS V13.01,2013-04-29 08:26:00,
2013-04-29 04:31:00,55.8,55.0,29.99,West,281,0.0,18.0,97,0.00,,---,0.26,VWS V13.01,2013-04-29 08:31:00,
2013-04-29 04:36:00,55.9,55.1,29.99,West,281,0.0,18.0,97,0.00,,---,0.26,VWS V13.01,2013-04-29 08:36:00,
2013-04-29 04:41:00,55.8,55.0,29.99,West,281,0.0,18.0,97,0.00,,---,0.26,VWS V13.01,2013-04-29 08:41:00,
2013-04-29 04:46:00,55.8,55.0,29.99,West,281,0.0,18.0,97,0.00,,---,0.26,VWS V13.01,2013-04-29 08:46:00,
2013-04-29 04:51:00,55.9,55.1,29.99,West,281,0.0,18.0,97,0.00,,---,0.27,VWS V13.01,2013-04-29 08:51:00,
2013-04-29 04:56:00,55.9,55.1,29.99,West,281,0.0,18.0,97,0.00,,---,0.27,VWS V13.01,2013-04-29 08:56:00,
2013-04-29 05:01:00,55.9,55.1,29.99,West,281,0.0,18.0,97,0.00,,---,0.27,VWS V13.01,2013-04-29 09:01:00,
2013-04-29 05:06:00,55.9,55.1,29.99,WNW,287,0.0,18.0,97,0.00,,---,0.27,VWS V13.01,2013-04-29 09:06:00,
2013-04-29 05:11:00,55.9,55.1,29.99,NW,305,0.0,18.0,97,0.00,,---,0.27,VWS V13.01,2013-04-29 09:11:00,
2013-04-29 05:16:00,55.9,55.1,29.99,NW,308,0.0,18.0,97,0.00,,---,0.28,VWS V13.01,2013-04-29 09:16:00,
2013-04-29 05:21:00,56.0,55.2,29.99,NW,306,0.0,18.0,97,0.00,,---,0.28,VWS V13.01,2013-04-29 09:21:00,
2013-04-29 05:26:00,56.0,55.2,29.98,NW,306,0.0,18.0,97,0.00,,---,0.29,VWS V13.01,2013-04-29 09:26:00,
2013-04-29 05:31:00,56.1,55.3,29.98,NW,307,0.0,18.0,97,0.00,,---,0.30,VWS V13.01,2013-04-29 09:31:00,
2013-04-29 05:36:00,56.1,55.3,29.98,NW,307,0.0,18.0,97,0.00,,---,0.30,VWS V13.01,2013-04-29 09:36:00,
2013-04-29 05:41:00,56.1,55.3,29.98,NW,306,0.0,18.0,97,0.00,,---,0.31,VWS V13.01,2013-04-29 09:41:00,
2013-04-29 05:46:00,56.1,55.3,29.98,NW,306,0.0,18.0,97,0.00,,---,0.31,VWS V13.01,2013-04-29 09:46:00,
2013-04-29 05:51:00,56.1,55.3,29.98,NW,306,0.0,18.0,97,0.00,,---,0.31,VWS V13.01,2013-04-29 09:51:00,
2013-04-29 05:56:00,56.1,55.3,29.99,NW,307,0.0,18.0,97,0.00,,---,0.31,VWS V13.01,2013-04-29 09:56:00,
2013-04-29 06:01:00,56.1,55.3,29.99,NW,307,0.0,18.0,97,0.00,,---,0.32,VWS V13.01,2013-04-29 10:01:00,
2013-04-29 06:06:00,56.1,55.3,29.99,NW,307,0.0,18.0,97,0.00,,---,0.32,VWS V13.01,2013-04-29 10:06:00,
2013-04-29 06:11:00,56.1,55.3,30.00,NW,306,0.0,18.0,97,0.00,,---,0.32,VWS V13.01,2013-04-29 10:11:00,
2013-04-29 06:16:00,56.2,55.4,30.00,NW,307,0.0,18.0,97,0.00,,---,0.33,VWS V13.01,2013-04-29 10:16:00,
2013-04-29 06:21:00,56.2,55.4,30.00,NW,306,0.0,18.0,97,0.00,,---,0.33,VWS V13.01,2013-04-29 10:21:00,
2013-04-29 06:26:00,56.3,55.5,30.00,NW,305,0.0,18.0,97,0.00,,---,0.34,VWS V13.01,2013-04-29 10:26:00,
2013-04-29 06:31:00,56.3,55.5,30.00,NW,305,0.0,18.0,97,0.00,,---,0.35,VWS V13.01,2013-04-29 10:31:00,
2013-04-29 06:36:00,56.3,55.5,30.00,NW,305,0.0,18.0,97,0.00,,---,0.35,VWS V13.01,2013-04-29 10:36:00,
2013-04-29 06:41:00,56.3,55.5,30.00,NW,305,0.0,18.0,97,0.00,,---,0.35,VWS V13.01,2013-04-29 10:41:00,
2013-04-29 06:46:00,56.3,55.5,30.00,NW,307,0.0,18.0,97,0.00,,---,0.36,VWS V13.01,2013-04-29 10:46:00,
2013-04-29 06:51:00,56.4,55.6,30.00,NW,305,0.0,18.0,97,0.00,,---,0.36,VWS V13.01,2013-04-29 10:51:00,
2013-04-29 06:56:00,56.3,55.5,30.00,NW,305,0.0,18.0,97,0.00,,---,0.36,VWS V13.01,2013-04-29 10:56:00,
2013-04-29 07:01:00,56.3,55.5,30.00,NW,306,0.0,18.0,97,0.00,,---,0.36,VWS V13.01,2013-04-29 11:01:00,
2013-04-29 07:06:00,56.3,55.5,30.00,NW,306,0.0,18.0,97,0.00,,---,0.36,VWS V13.01,2013-04-29 11:06:00,
2013-04-29 07:11:00,56.3,55.5,30.00,NW,307,0.0,18.0,97,0.00,,---,0.36,VWS V13.01,2013-04-29 11:11:00,
2013-04-29 07:16:00,56.3,55.5,30.00,NW,305,0.0,18.0,97,0.00,,---,0.36,VWS V13.01,2013-04-29 11:16:00,
2013-04-29 07:21:00,56.3,55.5,30.00,NW,305,0.0,18.0,97,0.00,,---,0.36,VWS V13.01,2013-04-29 11:21:00,
2013-04-29 07:26:00,56.3,55.5,30.01,NW,307,0.0,18.0,97,0.00,,---,0.36,VWS V13.01,2013-04-29 11:26:00,
2013-04-29 07:31:00,56.4,55.6,30.01,NW,307,0.0,18.0,97,0.00,,---,0.37,VWS V13.01,2013-04-29 11:31:00,
2013-04-29 07:36:00,56.5,55.7,30.01,NW,306,0.0,18.0,97,0.00,,---,0.37,VWS V13.01,2013-04-29 11:36:00,
2013-04-29 07:41:00,56.5,55.7,30.01,NW,306,0.0,18.0,97,0.00,,---,0.37,VWS V13.01,2013-04-29 11:41:00,
2013-04-29 07:46:00,56.6,55.8,30.01,NW,305,0.0,18.0,97,0.00,,---,0.38,VWS V13.01,2013-04-29 11:46:00,
2013-04-29 07:51:00,56.6,55.8,30.01,NW,306,0.0,18.0,97,0.00,,---,0.38,VWS V13.01,2013-04-29 11:51:00,
2013-04-29 07:56:00,56.7,55.9,30.01,NW,307,0.0,18.0,97,0.00,,---,0.38,VWS V13.01,2013-04-29 11:56:00,
2013-04-29 08:01:00,56.8,56.0,30.01,NW,305,0.0,18.0,97,0.00,,---,0.38,VWS V13.01,2013-04-29 12:01:00,
2013-04-29 08:06:00,57.0,56.2,30.01,NW,306,0.0,18.0,97,0.00,,---,0.38,VWS V13.01,2013-04-29 12:06:00,
2013-04-29 08:11:00,57.1,56.3,30.01,NW,305,0.0,18.0,97,0.00,,---,0.38,VWS V13.01,2013-04-29 12:11:00,
2013-04-29 08:16:00,57.2,56.4,30.01,NW,305,0.0,18.0,97,0.00,,---,0.38,VWS V13.01,2013-04-29 12:16:00,
2013-04-29 08:21:00,57.3,56.5,30.01,NW,305,0.0,18.0,97,0.00,,---,0.38,VWS V13.01,2013-04-29 12:21:00,
2013-04-29 08:26:00,57.4,56.6,30.01,NW,305,0.0,18.0,97,0.00,,---,0.38,VWS V13.01,2013-04-29 12:26:00,
2013-04-29 08:31:00,57.5,56.7,30.01,NW,305,0.0,18.0,97,0.00,,---,0.38,VWS V13.01,2013-04-29 12:31:00,
2013-04-29 08:36:00,57.7,56.9,30.01,NW,305,0.0,18.0,97,0.00,,---,0.39,VWS V13.01,2013-04-29 12:36:00,
2013-04-29 08:41:00,57.9,57.1,30.00,NW,305,0.0,18.0,97,0.00,,---,0.39,VWS V13.01,2013-04-29 12:41:00,
2013-04-29 08:46:00,58.1,57.3,30.00,NW,305,0.0,18.0,97,0.00,,---,0.39,VWS V13.01,2013-04-29 12:46:00,
2013-04-29 08:51:00,58.4,57.6,30.00,NW,305,0.0,18.0,97,0.00,,---,0.39,VWS V13.01,2013-04-29 12:51:00,
2013-04-29 08:56:00,58.6,57.8,30.01,NW,305,0.0,18.0,97,0.00,,---,0.39,VWS V13.01,2013-04-29 12:56:00,
2013-04-29 09:01:00,58.6,57.8,30.01,NW,305,0.0,18.0,97,0.00,,---,0.39,VWS V13.01,2013-04-29 13:01:00,
2013-04-29 09:06:00,58.7,57.8,30.01,NW,307,0.0,18.0,97,0.00,,---,0.39,VWS V13.01,2013-04-29 13:06:00,
2013-04-29 09:11:00,58.7,57.8,30.01,NW,307,0.0,18.0,97,0.00,,---,0.39,VWS V13.01,2013-04-29 13:11:00,
2013-04-29 09:16:00,58.8,58.0,30.01,NW,308,0.0,18.0,97,0.00,,---,0.39,VWS V13.01,2013-04-29 13:16:00,
2013-04-29 09:21:00,58.9,58.0,30.01,NW,307,0.0,18.0,97,0.00,,---,0.39,VWS V13.01,2013-04-29 13:21:00,
2013-04-29 09:26:00,59.2,58.3,30.01,NW,308,0.0,18.0,97,0.00,,---,0.39,VWS V13.01,2013-04-29 13:26:00,
2013-04-29 09:31:00,59.5,58.7,30.01,NW,308,0.0,18.0,97,0.00,,---,0.39,VWS V13.01,2013-04-29 13:31:00,
2013-04-29 09:36:00,59.7,58.8,30.01,NW,307,0.0,18.0,97,0.00,,---,0.39,VWS V13.01,2013-04-29 13:36:00,
2013-04-29 09:41:00,59.8,59.0,30.01,NW,307,0.0,18.0,97,0.00,,---,0.39,VWS V13.01,2013-04-29 13:41:00,
2013-04-29 09:46:00,60.1,59.2,30.01,NW,308,0.0,18.0,97,0.00,,---,0.39,VWS V13.01,2013-04-29 13:46:00,
2013-04-29 09:51:00,60.2,59.1,30.01,NW,308,0.0,18.0,96,0.00,,---,0.39,VWS V13.01,2013-04-29 13:51:00,
2013-04-29 09:56:00,60.4,59.3,30.01,NW,307,0.0,18.0,96,0.00,,---,0.39,VWS V13.01,2013-04-29 13:56:00,
2013-04-29 10:01:00,60.4,59.0,30.01,NW,308,0.0,18.0,95,0.00,,---,0.39,VWS V13.01,2013-04-29 14:01:00,
2013-04-29 10:06:00,60.7,59.6,30.01,NW,308,0.0,18.0,96,0.00,,---,0.39,VWS V13.01,2013-04-29 14:06:00,
2013-04-29 10:11:00,61.2,60.0,30.00,NW,307,0.0,18.0,96,0.00,,---,0.39,VWS V13.01,2013-04-29 14:11:00,
2013-04-29 10:16:00,61.4,60.0,30.00,West,280,0.0,18.0,95,0.00,,---,0.39,VWS V13.01,2013-04-29 14:16:00,
2013-04-29 10:21:00,61.8,60.4,30.00,West,280,0.0,18.0,95,0.00,,---,0.39,VWS V13.01,2013-04-29 14:21:00,
2013-04-29 10:26:00,61.8,60.1,30.01,SW,233,0.0,18.0,94,0.00,,---,0.39,VWS V13.01,2013-04-29 14:26:00,
2013-04-29 10:31:00,62.1,60.4,30.01,SW,228,0.0,18.0,94,0.00,,---,0.39,VWS V13.01,2013-04-29 14:31:00,
2013-04-29 10:36:00,62.4,60.3,30.01,SW,229,0.0,18.0,93,0.00,,---,0.39,VWS V13.01,2013-04-29 14:36:00,
2013-04-29 10:41:00,63.2,61.5,30.01,SSW,207,0.0,18.0,94,0.00,,---,0.39,VWS V13.01,2013-04-29 14:41:00,
2013-04-29 10:46:00,63.8,61.4,30.01,SSW,200,0.0,18.0,92,0.00,,---,0.39,VWS V13.01,2013-04-29 14:46:00,
2013-04-29 10:51:00,64.3,61.0,30.01,SW,229,0.0,18.0,89,0.00,,---,0.39,VWS V13.01,2013-04-29 14:51:00,
2013-04-29 10:56:00,64.4,61.1,30.01,WSW,239,0.0,18.0,89,0.00,,---,0.39,VWS V13.01,2013-04-29 14:56:00,
2013-04-29 11:01:00,64.5,61.2,30.01,WSW,252,0.0,18.0,89,0.00,,---,0.39,VWS V13.01,2013-04-29 15:01:00,
2013-04-29 11:06:00,64.3,61.0,30.01,WSW,253,0.0,18.0,89,0.00,,---,0.39,VWS V13.01,2013-04-29 15:06:00,
2013-04-29 11:11:00,64.2,60.6,30.01,WSW,253,0.0,18.0,88,0.00,,---,0.39,VWS V13.01,2013-04-29 15:11:00,
2013-04-29 11:16:00,64.6,61.0,30.01,SE,146,0.0,18.0,88,0.00,,---,0.39,VWS V13.01,2013-04-29 15:16:00,
2013-04-29 11:21:00,65.0,61.4,30.01,SE,145,0.0,18.0,88,0.00,,---,0.39,VWS V13.01,2013-04-29 15:21:00,
2013-04-29 11:26:00,65.3,61.7,30.01,SE,145,0.0,18.0,88,0.00,,---,0.39,VWS V13.01,2013-04-29 15:26:00,
2013-04-29 11:31:00,65.4,61.1,30.01,ESE,121,0.0,18.0,86,0.00,,---,0.39,VWS V13.01,2013-04-29 15:31:00,
2013-04-29 11:36:00,65.3,61.0,30.01,SE,133,0.0,18.0,86,0.00,,---,0.39,VWS V13.01,2013-04-29 15:36:00,
2013-04-29 11:41:00,65.1,60.8,30.01,SE,132,0.0,18.0,86,0.00,,---,0.39,VWS V13.01,2013-04-29 15:41:00,
2013-04-29 11:46:00,64.9,61.3,30.01,SE,133,0.0,18.0,88,0.00,,---,0.39,VWS V13.01,2013-04-29 15:46:00,
2013-04-29 11:51:00,64.6,60.7,30.01,SE,132,0.0,18.0,87,0.00,,---,0.39,VWS V13.01,2013-04-29 15:51:00,
2013-04-29 11:56:00,64.5,60.9,30.01,SSE,162,0.0,18.0,88,0.00,,---,0.39,VWS V13.01,2013-04-29 15:56:00,
2013-04-29 12:01:00,64.9,61.9,30.01,SSE,166,0.0,18.0,90,0.00,,---,0.39,VWS V13.01,2013-04-29 16:01:00,
2013-04-29 12:06:00,65.2,61.2,30.01,SSW,197,0.0,18.0,87,0.00,,---,0.39,VWS V13.01,2013-04-29 16:06:00,
2013-04-29 12:11:00,65.5,61.2,30.01,WSW,238,0.0,18.0,86,0.00,,---,0.39,VWS V13.01,2013-04-29 16:11:00,
2013-04-29 12:16:00,65.6,61.0,30.01,South,191,0.0,18.0,85,0.00,,---,0.39,VWS V13.01,2013-04-29 16:16:00,
2013-04-29 12:21:00,65.7,60.7,30.01,SW,226,0.0,18.0,84,0.00,,---,0.39,VWS V13.01,2013-04-29 16:21:00,
2013-04-29 12:26:00,65.9,61.3,30.01,South,191,0.0,18.0,85,0.00,,---,0.39,VWS V13.01,2013-04-29 16:26:00,
2013-04-29 12:31:00,65.8,60.8,30.01,NE,51,0.0,18.0,84,0.00,,---,0.39,VWS V13.01,2013-04-29 16:31:00,
2013-04-29 12:36:00,65.8,61.2,30.01,SE,124,0.0,18.0,85,0.00,,---,0.39,VWS V13.01,2013-04-29 16:36:00,
2013-04-29 12:41:00,65.6,60.6,30.00,SE,124,0.0,18.0,84,0.00,,---,0.39,VWS V13.01,2013-04-29 16:41:00,
2013-04-29 12:46:00,65.7,60.4,30.00,SSE,149,0.0,18.0,83,0.00,,---,0.39,VWS V13.01,2013-04-29 16:46:00,
2013-04-29 12:51:00,66.0,61.4,30.00,SE,144,0.0,18.0,85,0.00,,---,0.39,VWS V13.01,2013-04-29 16:51:00,
2013-04-29 12:56:00,66.2,60.9,30.00,SE,143,0.0,18.0,83,0.00,,---,0.39,VWS V13.01,2013-04-29 16:56:00,
2013-04-29 13:01:00,66.7,61.7,30.00,SSE,156,0.0,18.0,84,0.00,,---,0.39,VWS V13.01,2013-04-29 17:01:00,
2013-04-29 13:06:00,67.2,62.2,30.00,SSE,156,0.0,18.0,84,0.00,,---,0.39,VWS V13.01,2013-04-29 17:06:00,
2013-04-29 13:11:00,67.7,62.0,29.99,SE,142,0.0,18.0,82,0.00,,---,0.39,VWS V13.01,2013-04-29 17:11:00,
2013-04-29 13:16:00,68.2,61.8,29.99,SE,128,0.0,18.0,80,0.00,,---,0.39,VWS V13.01,2013-04-29 17:16:00,
2013-04-29 13:21:00,68.2,61.1,29.99,ESE,115,0.0,18.0,78,0.00,,---,0.39,VWS V13.01,2013-04-29 17:21:00,
2013-04-29 13:26:00,68.0,62.3,29.99,SE,136,0.0,18.0,82,0.00,,---,0.39,VWS V13.01,2013-04-29 17:26:00,
2013-04-29 13:31:00,67.9,61.5,29.99,WNW,302,0.0,18.0,80,0.00,,---,0.39,VWS V13.01,2013-04-29 17:31:00,
2013-04-29 13:36:00,67.8,61.1,29.99,NNW,338,1.0,18.0,79,0.00,,---,0.39,VWS V13.01,2013-04-29 17:36:00,
2013-04-29 13:41:00,67.6,61.6,29.99,ESE,123,1.0,18.0,81,0.00,,---,0.39,VWS V13.01,2013-04-29 17:41:00,
2013-04-29 13:46:00,67.7,62.0,29.99,East,97,1.0,18.0,82,0.00,,---,0.39,VWS V13.01,2013-04-29 17:46:00,
2013-04-29 13:51:00,67.5,61.1,29.99,ESE,121,0.0,18.0,80,0.00,,---,0.39,VWS V13.01,2013-04-29 17:51:00,
2013-04-29 13:56:00,67.1,60.7,29.99,ENE,63,0.0,18.0,80,0.00,,---,0.39,VWS V13.01,2013-04-29 17:56:00,
2013-04-29 14:01:00,66.8,60.8,29.99,NW,326,0.0,18.0,81,0.00,,---,0.39,VWS V13.01,2013-04-29 18:01:00,
2013-04-29 14:06:00,66.8,61.1,29.99,NNW,327,0.0,18.0,82,0.00,,---,0.39,VWS V13.01,2013-04-29 18:06:00,
2013-04-29 14:11:00,66.9,60.5,29.99,ESE,117,0.0,18.0,80,0.00,,---,0.39,VWS V13.01,2013-04-29 18:11:00,
2013-04-29 14:16:00,66.8,60.8,29.99,WNW,283,0.0,18.0,81,0.00,,---,0.39,VWS V13.01,2013-04-29 18:16:00,
2013-04-29 14:21:00,66.8,60.1,29.99,ESE,120,0.0,18.0,79,0.00,,---,0.39,VWS V13.01,2013-04-29 18:21:00,
2013-04-29 14:26:00,67.1,61.1,29.98,ESE,122,0.0,18.0,81,0.00,,---,0.39,VWS V13.01,2013-04-29 18:26:00,
2013-04-29 14:31:00,67.8,61.4,29.98,NNE,16,0.0,18.0,80,0.00,,---,0.39,VWS V13.01,2013-04-29 18:31:00,
2013-04-29 14:36:00,69.0,61.9,29.98,ESE,115,0.0,18.0,78,0.00,,---,0.39,VWS V13.01,2013-04-29 18:36:00,
2013-04-29 14:41:00,70.1,62.2,29.97,East,101,0.0,18.0,76,0.00,,---,0.39,VWS V13.01,2013-04-29 18:41:00,
2013-04-29 14:46:00,70.8,62.1,29.97,South,172,0.0,18.0,74,0.00,,---,0.39,VWS V13.01,2013-04-29 18:46:00,
2013-04-29 14:51:00,71.1,62.0,29.97,WSW,240,0.0,18.0,73,0.00,,---,0.39,VWS V13.01,2013-04-29 18:51:00,
2013-04-29 14:56:00,70.4,62.1,29.97,SSW,211,0.0,18.0,75,0.00,,---,0.39,VWS V13.01,2013-04-29 18:56:00,
2013-04-29 15:01:00,70.1,61.8,29.97,SE,129,0.0,18.0,75,0.00,,---,0.39,VWS V13.01,2013-04-29 19:01:00,
2013-04-29 15:06:00,70.0,61.7,29.97,SE,130,0.0,18.0,75,0.00,,---,0.39,VWS V13.01,2013-04-29 19:06:00,
2013-04-29 15:11:00,70.1,62.6,29.96,ESE,115,0.0,18.0,77,0.00,,---,0.39,VWS V13.01,2013-04-29 19:11:00,
2013-04-29 15:16:00,70.1,61.8,29.96,SSE,152,0.0,18.0,75,0.00,,---,0.39,VWS V13.01,2013-04-29 19:16:00,
2013-04-29 15:21:00,70.1,61.4,29.96,WNW,297,1.0,18.0,74,0.00,,---,0.39,VWS V13.01,2013-04-29 19:21:00,
2013-04-29 15:26:00,69.8,61.2,29.96,NW,320,0.0,18.0,74,0.00,,---,0.39,VWS V13.01,2013-04-29 19:26:00,
2013-04-29 15:31:00,70.1,62.2,29.96,ENE,64,0.0,18.0,76,0.00,,---,0.39,VWS V13.01,2013-04-29 19:31:00,
2013-04-29 15:36:00,70.3,61.6,29.96,WNW,293,0.0,18.0,74,0.00,,---,0.39,VWS V13.01,2013-04-29 19:36:00,
2013-04-29 15:41:00,70.6,61.5,29.95,NW,309,0.0,18.0,73,0.00,,---,0.39,VWS V13.01,2013-04-29 19:41:00,
2013-04-29 15:46:00,70.8,60.9,29.95,NW,318,0.0,18.0,71,0.00,,---,0.39,VWS V13.01,2013-04-29 19:46:00,
2013-04-29 15:51:00,71.0,62.3,29.95,NW,316,0.0,18.0,74,0.00,,---,0.39,VWS V13.01,2013-04-29 19:51:00,
2013-04-29 15:56:00,71.6,62.5,29.94,ESE,115,1.0,18.0,73,0.00,,---,0.39,VWS V13.01,2013-04-29 19:56:00,
2013-04-29 16:01:00,71.7,61.8,29.94,WNW,287,0.0,18.0,71,0.00,,---,0.39,VWS V13.01,2013-04-29 20:01:00,
2013-04-29 16:06:00,71.2,60.9,29.94,East,92,0.0,18.0,70,0.00,,---,0.39,VWS V13.01,2013-04-29 20:06:00,
2013-04-29 16:10:00,70.8,61.7,29.94,South,180,0.0,18.0,73,0.00,,---,0.39,VWS V13.01,2013-04-29 20:10:00,
2013-04-29 16:15:00,70.6,61.1,29.94,WSW,238,0.0,18.0,72,0.00,,---,0.39,VWS V13.01,2013-04-29 20:15:00,
2013-04-29 16:20:00,70.7,62.0,29.94,SE,127,0.0,18.0,74,0.00,,---,0.39,VWS V13.01,2013-04-29 20:20:00,
2013-04-29 16:25:00,71.1,61.6,29.93,SE,127,0.0,18.0,72,0.00,,---,0.39,VWS V13.01,2013-04-29 20:25:00,
2013-04-29 16:31:00,71.4,61.9,29.93,WNW,301,1.0,18.0,72,0.00,,---,0.39,VWS V13.01,2013-04-29 20:31:00,
2013-04-29 16:35:00,71.5,62.0,29.93,SE,125,2.0,18.0,72,0.00,,---,0.39,VWS V13.01,2013-04-29 20:35:00,
2013-04-29 16:40:00,71.6,62.5,29.93,SW,228,0.0,18.0,73,0.00,,---,0.39,VWS V13.01,2013-04-29 20:40:00,
2013-04-29 16:45:00,71.6,60.5,29.93,SSE,166,0.0,18.0,68,0.00,,---,0.39,VWS V13.01,2013-04-29 20:45:00,
2013-04-29 16:50:00,71.5,60.8,29.93,SSE,159,0.0,18.0,69,0.00,,---,0.39,VWS V13.01,2013-04-29 20:50:00,
2013-04-29 16:55:00,71.2,60.9,29.93,SW,226,0.0,18.0,70,0.00,,---,0.39,VWS V13.01,2013-04-29 20:55:00,
2013-04-29 17:00:00,70.8,60.9,29.93,SW,226,0.0,18.0,71,0.00,,---,0.39,VWS V13.01,2013-04-29 21:00:00,
2013-04-29 17:05:00,70.5,61.4,29.93,SW,226,0.0,18.0,73,0.00,,---,0.39,VWS V13.01,2013-04-29 21:05:00,
2013-04-29 17:10:00,70.3,61.6,29.93,SW,226,0.0,18.0,74,0.00,,---,0.39,VWS V13.01,2013-04-29 21:10:00,
2013-04-29 17:15:00,70.1,61.8,29.93,SW,226,0.0,18.0,75,0.00,,---,0.39,VWS V13.01,2013-04-29 21:15:00,
2013-04-29 17:20:00,70.1,61.0,29.93,SSW,198,0.0,18.0,73,0.00,,---,0.39,VWS V13.01,2013-04-29 21:20:00,
2013-04-29 17:25:00,70.3,62.4,29.93,SSW,198,0.0,18.0,76,0.00,,---,0.39,VWS V13.01,2013-04-29 21:25:00,
2013-04-29 17:30:00,70.5,61.0,29.93,South,190,0.0,18.0,72,0.00,,---,0.39,VWS V13.01,2013-04-29 21:30:00,
2013-04-29 17:35:00,70.6,61.1,29.93,South,191,0.0,18.0,72,0.00,,---,0.39,VWS V13.01,2013-04-29 21:35:00,
2013-04-29 17:40:00,70.7,60.8,29.93,South,190,0.0,18.0,71,0.00,,---,0.39,VWS V13.01,2013-04-29 21:40:00,
2013-04-29 17:45:00,70.4,59.8,29.93,ESE,111,1.0,18.0,69,0.00,,---,0.39,VWS V13.01,2013-04-29 21:45:00,
2013-04-29 17:50:00,70.3,60.9,29.93,ESE,112,0.0,18.0,72,0.00,,---,0.39,VWS V13.01,2013-04-29 21:50:00,
2013-04-29 17:55:00,70.1,61.0,29.93,ESE,112,0.0,18.0,73,0.00,,---,0.39,VWS V13.01,2013-04-29 21:55:00,
2013-04-29 18:00:00,69.7,61.4,29.93,ESE,112,0.0,18.0,75,0.00,,---,0.39,VWS V13.01,2013-04-29 22:00:00,
2013-04-29 18:05:00,69.3,62.5,29.93,ESE,112,0.0,18.0,79,0.00,,---,0.39,VWS V13.01,2013-04-29 22:05:00,
2013-04-29 18:10:00,68.8,62.4,29.93,ESE,111,0.0,18.0,80,0.00,,---,0.39,VWS V13.01,2013-04-29 22:10:00,
2013-04-29 18:15:00,68.4,63.0,29.93,ESE,112,0.0,18.0,83,0.00,,---,0.39,VWS V13.01,2013-04-29 22:15:00,
2013-04-29 18:20:00,67.9,62.5,29.93,ESE,111,0.0,18.0,83,0.00,,---,0.39,VWS V13.01,2013-04-29 22:20:00,
2013-04-29 18:25:00,67.7,62.7,29.93,ESE,111,0.0,18.0,84,0.00,,---,0.39,VWS V13.01,2013-04-29 22:25:00,
2013-04-29 18:30:00,67.4,62.7,29.93,ESE,111,0.0,18.0,85,0.00,,---,0.39,VWS V13.01,2013-04-29 22:30:00,
2013-04-29 18:35:00,67.3,62.6,29.93,ESE,112,0.0,18.0,85,0.00,,---,0.39,VWS V13.01,2013-04-29 22:35:00,
2013-04-29 18:40:00,67.2,62.9,29.93,ESE,111,0.0,18.0,86,0.00,,---,0.39,VWS V13.01,2013-04-29 22:40:00,
2013-04-29 18:45:00,67.2,63.2,29.93,ESE,111,0.0,18.0,87,0.00,,---,0.39,VWS V13.01,2013-04-29 22:45:00,
2013-04-29 18:50:00,67.3,62.6,29.93,ESE,112,0.0,18.0,85,0.00,,---,0.39,VWS V13.01,2013-04-29 22:50:00,
2013-04-29 18:55:00,67.5,63.2,29.93,ESE,111,0.0,18.0,86,0.00,,---,0.39,VWS V13.01,2013-04-29 22:55:00,
2013-04-29 19:00:00,67.7,63.0,29.93,ESE,111,0.0,18.0,85,0.00,,---,0.39,VWS V13.01,2013-04-29 23:00:00,
2013-04-29 19:05:00,67.8,62.8,29.93,ESE,111,0.0,18.0,84,0.00,,---,0.39,VWS V13.01,2013-04-29 23:05:00,
2013-04-29 19:10:00,67.9,62.2,29.94,ESE,112,0.0,18.0,82,0.00,,---,0.39,VWS V13.01,2013-04-29 23:10:00,
2013-04-29 19:15:00,67.9,62.2,29.94,ESE,111,0.0,18.0,82,0.00,,---,0.39,VWS V13.01,2013-04-29 23:15:00,
2013-04-29 19:20:00,67.9,62.5,29.94,East,89,0.0,18.0,83,0.00,,---,0.39,VWS V13.01,2013-04-29 23:20:00,
2013-04-29 19:25:00,67.7,62.0,29.94,East,90,0.0,18.0,82,0.00,,---,0.39,VWS V13.01,2013-04-29 23:25:00,
2013-04-29 19:30:00,67.5,61.8,29.94,East,91,0.0,18.0,82,0.00,,---,0.39,VWS V13.01,2013-04-29 23:30:00,
2013-04-29 19:35:00,67.2,62.2,29.94,East,90,0.0,18.0,84,0.00,,---,0.39,VWS V13.01,2013-04-29 23:35:00,
2013-04-29 19:40:00,66.8,62.2,29.94,East,90,0.0,18.0,85,0.00,,---,0.39,VWS V13.01,2013-04-29 23:40:00,
2013-04-29 19:45:00,66.4,62.1,29.94,East,90,0.0,18.0,86,0.00,,---,0.39,VWS V13.01,2013-04-29 23:45:00,
2013-04-29 19:50:00,66.0,62.0,29.94,East,90,0.0,18.0,87,0.00,,---,0.39,VWS V13.01,2013-04-29 23:50:00,
2013-04-29 19:55:00,65.6,61.6,29.95,East,90,0.0,18.0,87,0.00,,---,0.39,VWS V13.01,2013-04-29 23:55:00,
2013-04-29 20:00:00,65.2,61.6,29.95,East,91,0.0,18.0,88,0.00,,---,0.39,VWS V13.01,2013-04-30 00:00:00,
2013-04-29 20:05:00,64.9,61.3,29.95,East,91,0.0,18.0,88,0.00,,---,0.39,VWS V13.01,2013-04-30 00:05:00,
2013-04-29 20:10:00,64.6,61.0,29.96,East,90,0.0,18.0,88,0.00,,---,0.39,VWS V13.01,2013-04-30 00:10:00,
2013-04-29 20:15:00,64.2,60.9,29.96,East,91,0.0,18.0,89,0.00,,---,0.39,VWS V13.01,2013-04-30 00:15:00,
2013-04-29 20:20:00,63.8,60.5,29.96,East,91,0.0,18.0,89,0.00,,---,0.39,VWS V13.01,2013-04-30 00:20:00,
2013-04-29 20:25:00,63.4,60.4,29.96,East,90,0.0,18.0,90,0.00,,---,0.39,VWS V13.01,2013-04-30 00:25:00,
2013-04-29 20:30:00,63.1,60.1,29.96,East,90,0.0,18.0,90,0.00,,---,0.39,VWS V13.01,2013-04-30 00:30:00,
2013-04-29 20:35:00,62.7,60.0,29.96,East,90,0.0,18.0,91,0.00,,---,0.39,VWS V13.01,2013-04-30 00:35:00,
2013-04-29 20:40:00,62.4,59.7,29.97,East,90,0.0,18.0,91,0.00,,---,0.39,VWS V13.01,2013-04-30 00:40:00,
2013-04-29 20:45:00,62.1,59.5,29.97,East,91,0.0,18.0,91,0.00,,---,0.39,VWS V13.01,2013-04-30 00:45:00,
2013-04-29 20:50:00,61.8,59.2,29.97,East,91,0.0,18.0,91,0.00,,---,0.39,VWS V13.01,2013-04-30 00:50:00,
2013-04-29 20:55:00,61.6,59.3,29.98,East,90,0.0,18.0,92,0.00,,---,0.39,VWS V13.01,2013-04-30 00:55:00,
2013-04-29 21:00:00,61.3,59.0,29.98,East,90,0.0,18.0,92,0.00,,---,0.39,VWS V13.01,2013-04-30 01:00:00,
2013-04-29 21:05:00,61.1,59.1,29.98,East,90,0.0,18.0,93,0.00,,---,0.39,VWS V13.01,2013-04-30 01:05:00,
2013-04-29 21:10:00,61.0,59.0,29.98,East,90,0.0,18.0,93,0.00,,---,0.39,VWS V13.01,2013-04-30 01:10:00,
2013-04-29 21:15:00,60.7,58.7,29.98,East,90,0.0,18.0,93,0.00,,---,0.39,VWS V13.01,2013-04-30 01:15:00,
2013-04-29 21:20:00,60.6,58.9,29.98,East,90,0.0,18.0,94,0.00,,---,0.39,VWS V13.01,2013-04-30 01:20:00,
2013-04-29 21:25:00,60.4,58.7,29.98,East,90,0.0,18.0,94,0.00,,---,0.39,VWS V13.01,2013-04-30 01:25:00,
2013-04-29 21:30:00,60.1,58.4,29.98,East,91,0.0,18.0,94,0.00,,---,0.39,VWS V13.01,2013-04-30 01:30:00,
2013-04-29 21:35:00,59.9,58.2,29.98,East,90,0.0,18.0,94,0.00,,---,0.39,VWS V13.01,2013-04-30 01:35:00,
2013-04-29 21:40:00,59.6,57.9,29.98,East,91,0.0,18.0,94,0.00,,---,0.39,VWS V13.01,2013-04-30 01:40:00,
2013-04-29 21:45:00,59.4,57.7,29.98,East,90,0.0,18.0,94,0.00,,---,0.39,VWS V13.01,2013-04-30 01:45:00,
2013-04-29 21:50:00,59.2,57.5,29.98,East,90,0.0,18.0,94,0.00,,---,0.39,VWS V13.01,2013-04-30 01:50:00,
2013-04-29 21:55:00,59.0,57.3,29.98,East,91,0.0,18.0,94,0.00,,---,0.39,VWS V13.01,2013-04-30 01:55:00,
2013-04-29 22:00:00,58.9,57.2,29.99,East,91,0.0,18.0,94,0.00,,---,0.39,VWS V13.01,2013-04-30 02:00:00,
2013-04-29 22:05:00,58.7,57.0,29.99,East,90,0.0,18.0,94,0.00,,---,0.39,VWS V13.01,2013-04-30 02:05:00,
2013-04-29 22:10:00,58.5,56.8,29.99,East,91,0.0,18.0,94,0.00,,---,0.39,VWS V13.01,2013-04-30 02:10:00,
2013-04-29 22:15:00,58.4,57.0,29.99,East,91,0.0,18.0,95,0.00,,---,0.39,VWS V13.01,2013-04-30 02:15:00,
2013-04-29 22:20:00,58.3,56.9,29.99,East,90,0.0,18.0,95,0.00,,---,0.39,VWS V13.01,2013-04-30 02:20:00,
2013-04-29 22:25:00,58.2,56.8,29.99,East,90,0.0,18.0,95,0.00,,---,0.39,VWS V13.01,2013-04-30 02:25:00,
2013-04-29 22:30:00,58.0,56.6,29.99,East,90,0.0,18.0,95,0.00,,---,0.39,VWS V13.01,2013-04-30 02:30:00,
2013-04-29 22:35:00,57.8,56.4,29.99,East,90,0.0,18.0,95,0.00,,---,0.39,VWS V13.01,2013-04-30 02:35:00,
2013-04-29 22:40:00,57.6,56.2,29.99,East,91,0.0,18.0,95,0.00,,---,0.39,VWS V13.01,2013-04-30 02:40:00,
2013-04-29 22:45:00,57.4,56.0,29.99,East,90,0.0,18.0,95,0.00,,---,0.39,VWS V13.01,2013-04-30 02:45:00,
2013-04-29 22:50:00,57.3,55.9,29.99,East,90,0.0,18.0,95,0.00,,---,0.39,VWS V13.01,2013-04-30 02:50:00,
2013-04-29 22:55:00,57.1,55.7,29.99,East,91,0.0,18.0,95,0.00,,---,0.39,VWS V13.01,2013-04-30 02:55:00,
2013-04-29 23:00:00,56.9,55.5,29.99,East,91,0.0,18.0,95,0.00,,---,0.39,VWS V13.01,2013-04-30 03:00:00,
2013-04-29 23:05:00,56.8,55.4,29.99,East,91,0.0,18.0,95,0.00,,---,0.39,VWS V13.01,2013-04-30 03:05:00,
2013-04-29 23:10:00,56.6,55.2,29.99,East,91,0.0,18.0,95,0.00,,---,0.39,VWS V13.01,2013-04-30 03:10:00,
2013-04-29 23:15:00,56.5,55.1,29.99,East,91,0.0,18.0,95,0.00,,---,0.39,VWS V13.01,2013-04-30 03:15:00,
2013-04-29 23:20:00,56.4,55.0,29.99,East,90,0.0,18.0,95,0.00,,---,0.39,VWS V13.01,2013-04-30 03:20:00,
2013-04-29 23:25:00,56.3,54.9,29.99,East,90,0.0,18.0,95,0.00,,---,0.39,VWS V13.01,2013-04-30 03:25:00,
2013-04-29 23:30:00,56.1,54.7,29.99,East,90,0.0,18.0,95,0.00,,---,0.39,VWS V13.01,2013-04-30 03:30:00,
2013-04-29 23:35:00,56.0,54.6,29.99,East,91,0.0,18.0,95,0.00,,---,0.39,VWS V13.01,2013-04-30 03:35:00,
2013-04-29 23:40:00,55.8,54.4,29.99,East,90,0.0,18.0,95,0.00,,---,0.39,VWS V13.01,2013-04-30 03:40:00,
2013-04-29 23:45:00,55.8,54.7,29.99,East,90,0.0,18.0,96,0.00,,---,0.39,VWS V13.01,2013-04-30 03:45:00,
2013-04-29 23:50:00,55.9,54.8,29.99,East,90,0.0,18.0,96,0.00,,---,0.39,VWS V13.01,2013-04-30 03:50:00,
2013-04-29 23:55:00,55.9,54.8,29.99,East,90,0.0,18.0,96,0.00,,---,0.39,VWS V13.01,2013-04-30 03:55:00,